Cody, WY

7:28 PM MST on November 24, 2017 (GMT -0700)
Yellowstone Regional

Weather History for KCOD - October, 2011

Change the Weather History Date:

Friday, October 21, 2011

  Actual Average Record
Temperature  
Mean Temperature 58 °F -  
Max Temperature 60 °F 61 °F 80 °F (2003)
Min Temperature 55 °F 34 °F 7 °F (1949)
Degree Days  
Heating Degree Days 8    
Growing Degree Days 8 (Base 50)    
Moisture  
Dew Point 33 °F    
Average Humidity 38    
Maximum Humidity 44    
Minimum Humidity 34    
Precipitation  
Precipitation 0.00 in - - ()
Sea Level Pressure  
Sea Level Pressure 30.13 in    
Wind  
Wind Speed 6 mph (West)    
Max Wind Speed 14 mph    
Max Gust Speed 20 mph    
Visibility 10 miles    
Events      
Averages and records for this station are not official NWS values.
T = Trace of Precipitation, MM = Missing Value Source: NWS Daily Summary

Daily Weather History Graph

Daily Weather History Graph

Search for Another Location

Airport or City:

Trip Planner

Search our weather history database for the weather conditions in past years. The results will help you decide how hot, cold, wet, or windy it might be!

Date:

Astronomy

Oct. 21, 2011 Rise Set
Actual Time 7:38 AM MDT 6:22 PM MDT
Civil Twilight 7:09 AM MDT 6:51 PM MDT
Nautical Twilight 6:35 AM MDT 7:25 PM MDT
Astronomical Twilight 6:01 AM MDT 7:59 PM MDT
Moon 1:18 AM MDT (10/21) 3:20 PM MDT (10/21)
Length of Visible Light 11h 42m
Length of Day
10h 43m
Waning Crescent, 33% of the Moon is Illuminated
Oct 21
Waning Crescent
Oct 26
New
Nov 2
First Quarter
Nov 10
Full
Nov 18
Last Quarter

Hourly Weather History & Observations

Time (MDT) Temp. Dew Point Humidity Pressure Visibility Wind Dir Wind Speed Gust Speed Precip Events Conditions
12:35 AM - - N/A% 30.09 in 10.0 mi East 4.6 mph - N/A   Mostly Cloudy
1:15 AM - - N/A% 30.08 in 10.0 mi SSW 9.2 mph - N/A   Overcast
1:35 AM - - N/A% 30.08 in 10.0 mi SW 5.8 mph - N/A   Overcast
1:55 AM - - N/A% 30.08 in 10.0 mi SW 3.5 mph - N/A   Overcast
2:15 AM - - N/A% 30.08 in 10.0 mi North 4.6 mph - N/A   Overcast
2:35 AM - - N/A% 30.08 in 10.0 mi Calm Calm - N/A   Overcast
2:55 AM - - N/A% 30.08 in 10.0 mi SSW 9.2 mph - N/A   Overcast
3:15 AM - - N/A% 30.09 in 10.0 mi Calm Calm - N/A   Overcast
3:35 AM - - N/A% 30.10 in 10.0 mi South 4.6 mph - N/A   Overcast
3:55 AM - - N/A% 30.10 in 10.0 mi Calm Calm - N/A   Overcast
4:15 AM - - N/A% 30.10 in 10.0 mi Calm Calm - N/A   Mostly Cloudy
4:35 AM - - N/A% 30.10 in 10.0 mi Calm Calm - N/A   Overcast
4:55 AM - - N/A% 30.10 in 10.0 mi SSE 4.6 mph - N/A   Mostly Cloudy
5:15 AM - - N/A% 30.11 in 10.0 mi SE 3.5 mph - N/A   Overcast
5:55 AM - - N/A% 30.11 in 10.0 mi ESE 4.6 mph - N/A   Overcast
6:35 AM - - N/A% 30.12 in 10.0 mi South 4.6 mph - N/A   Overcast
6:55 AM - - N/A% 30.12 in 10.0 mi South 3.5 mph - N/A   Overcast
7:15 AM - - N/A% 30.13 in 10.0 mi Calm Calm - N/A   Overcast
7:35 AM - - N/A% 30.14 in 10.0 mi ESE 8.1 mph - N/A   Overcast
7:55 AM - - N/A% 30.14 in 10.0 mi SSE 8.1 mph - N/A   Overcast
8:35 AM - - N/A% 30.15 in 10.0 mi NNE 4.6 mph - N/A   Mostly Cloudy
9:15 AM - - N/A% 30.16 in 10.0 mi Calm Calm - N/A   Scattered Clouds
9:35 AM - - N/A% 30.16 in 10.0 mi South 3.5 mph - N/A   Mostly Cloudy
9:55 AM - - N/A% 30.16 in 10.0 mi SW 3.5 mph - N/A   Partly Cloudy
10:15 AM - - N/A% 30.16 in 10.0 mi West 12.7 mph 19.6 mph N/A   Clear
10:35 AM - - N/A% 30.16 in 10.0 mi NW 8.1 mph 17.3 mph N/A   Clear
10:55 AM - - N/A% 30.16 in 10.0 mi NW 3.5 mph - N/A   Clear
11:15 AM 55.4 °F 33.8 °F 44% 30.16 in 10.0 mi North 10.4 mph - N/A   Clear
11:35 AM 55.4 °F 33.8 °F 44% 30.16 in 10.0 mi North 6.9 mph - N/A   Clear
11:55 AM - - N/A% 30.15 in 10.0 mi North 9.2 mph - N/A   Clear
12:15 PM 57.2 °F 33.8 °F 41% 30.15 in 10.0 mi North 9.2 mph - N/A   Partly Cloudy
12:55 PM 60.8 °F 33.8 °F 36% 30.14 in 10.0 mi North 12.7 mph - N/A   Overcast
1:15 PM 57.2 °F 33.8 °F 41% 30.13 in 10.0 mi North 9.2 mph - N/A   Overcast
1:35 PM 59.0 °F 33.8 °F 39% 30.13 in 10.0 mi NNW 9.2 mph - N/A   Mostly Cloudy
1:55 PM 60.8 °F 33.8 °F 36% 30.12 in 10.0 mi North 8.1 mph - N/A   Mostly Cloudy
2:15 PM 60.8 °F 32.0 °F 34% 30.12 in 10.0 mi NE 3.5 mph - N/A   Partly Cloudy
2:35 PM 60.8 °F 32.0 °F 34% 30.12 in 10.0 mi NW 6.9 mph - N/A   Clear
2:55 PM 60.8 °F 32.0 °F 34% 30.12 in 10.0 mi East 5.8 mph - N/A   Partly Cloudy
3:15 PM 60.8 °F 33.8 °F 36% 30.12 in 10.0 mi ENE 9.2 mph - N/A   Mostly Cloudy
3:35 PM 60.8 °F 33.8 °F 36% 30.12 in 10.0 mi NNE 10.4 mph - N/A   Mostly Cloudy
3:55 PM 59.0 °F 33.8 °F 39% 30.13 in 10.0 mi NE 5.8 mph - N/A   Mostly Cloudy
4:35 PM - - N/A% 30.13 in 10.0 mi ENE 8.1 mph - N/A   Mostly Cloudy
4:55 PM - - N/A% 30.14 in 10.0 mi ENE 4.6 mph - N/A   Mostly Cloudy
5:15 PM - - N/A% 30.13 in 10.0 mi East 4.6 mph - N/A   Mostly Cloudy
5:35 PM - - N/A% 30.13 in 10.0 mi ESE 5.8 mph - N/A   Overcast
5:55 PM - - N/A% 30.14 in 10.0 mi SW 4.6 mph - N/A   Overcast
6:15 PM - - N/A% 30.15 in 10.0 mi West 13.8 mph 17.3 mph N/A   Overcast
6:35 PM - - N/A% 30.15 in 10.0 mi Calm Calm - N/A   Overcast
6:55 PM - - N/A% 30.15 in 10.0 mi SSW 6.9 mph - N/A   Mostly Cloudy
7:15 PM - - N/A% 30.14 in 10.0 mi SW 5.8 mph - N/A   Partly Cloudy
7:35 PM - - N/A% 30.15 in 10.0 mi WSW 3.5 mph - N/A   Clear
7:55 PM - - N/A% 30.14 in 10.0 mi WSW 6.9 mph - N/A   Partly Cloudy
8:15 PM - - N/A% 30.14 in 10.0 mi WNW 4.6 mph - N/A   Mostly Cloudy
8:55 PM - - N/A% 30.14 in 10.0 mi NE 5.8 mph - N/A   Mostly Cloudy
9:15 PM - - N/A% 30.14 in 10.0 mi West 11.5 mph 16.1 mph N/A   Overcast
9:35 PM - - N/A% 30.15 in 10.0 mi West 9.2 mph - N/A   Mostly Cloudy
9:55 PM - - N/A% 30.15 in 10.0 mi WSW 11.5 mph 19.6 mph N/A   Mostly Cloudy
10:15 PM - - N/A% 30.15 in 10.0 mi WNW 8.1 mph - N/A   Mostly Cloudy
10:35 PM - - N/A% 30.16 in 10.0 mi WSW 12.7 mph - N/A   Mostly Cloudy
11:15 PM - - N/A% 30.15 in 10.0 mi West 8.1 mph - N/A   Overcast
11:35 PM - - N/A% 30.13 in 10.0 mi WSW 8.1 mph 16.1 mph N/A   Scattered Clouds
11:55 PM - - N/A% 30.13 in 10.0 mi WSW 6.9 mph - N/A   Partly Cloudy